When you browse on this site, cookies collect data to enhance your experience and personalize the content and advertising you see.
Visit our Privacy Policy to learn more. By continuing to use the site, you agree to this use of cookies and data.
  • In United Kingdom
  • List of Countries
  • For 7 days
  • Water Temperature
  • Weather Map
  • Weather Widgets
  • user-avatar
    Login

    Hourly Weather Ambikapur

    Today, 6 April, Monday

    Time Temperature Precipitation Wind Pressure Humidity
    00:00 +24°C° 0 mm 1 mps 708 mmHg 20%
    01:00 +24°C° 0 mm 1 mps 707 mmHg 21%
    02:00 +22°C° 0 mm 0 mps 707 mmHg 21%
    03:00 +21°C° 0 mm 0 mps 706 mmHg 22%
    04:00 +21°C° 0 mm 0 mps 706 mmHg 22%
    05:00 +23°C° 0 mm 1 mps 706 mmHg 23%
    06:00 +23°C° 0 mm 1 mps 707 mmHg 24%
    07:00 +26°C° 0 mm 1 mps 707 mmHg 22%
    08:00 +26°C° 0 mm 0 mps 708 mmHg 20%
    09:00 +29°C° 0 mm 0 mps 709 mmHg 17%
    10:00 +33°C° 0 mm 1 mps 709 mmHg 16%
    11:00 +35°C° 0 mm 2 mps 709 mmHg 14%
    12:00 +36°C° 0 mm 3 mps 710 mmHg 13%
    13:00 +37°C° 0 mm 4 mps 709 mmHg 12%
    14:00 +37°C° 0 mm 4 mps 708 mmHg 12%
    15:00 +38°C° 0 mm 4 mps 707 mmHg 11%
    16:00 +37°C° 0 mm 3 mps 706 mmHg 12%
    17:00 +36°C° 0 mm 3 mps 706 mmHg 13%
    18:00 +35°C° 0 mm 3 mps 706 mmHg 14%
    19:00 +32°C° 0 mm 2 mps 706 mmHg 15%
    20:00 +30°C° 0 mm 2 mps 706 mmHg 17%
    21:00 +28°C° 0 mm 1 mps 707 mmHg 19%
    22:00 +27°C° 0 mm 1 mps 706 mmHg 19%
    23:00 +27°C° 0 mm 1 mps 706 mmHg 20%

    Tomorrow, 7 April, Tuesday

    Time Temperature Precipitation Wind Pressure Humidity
    00:00 +26°C° 0 mm 1 mps 706 mmHg 20%
    01:00 +26°C° 0 mm 1 mps 705 mmHg 20%
    02:00 +25°C° 0 mm 1 mps 705 mmHg 21%
    03:00 +25°C° 0 mm 1 mps 704 mmHg 21%
    04:00 +25°C° 0 mm 1 mps 704 mmHg 22%
    05:00 +24°C° 0 mm 1 mps 704 mmHg 22%
    06:00 +24°C° 0 mm 1 mps 705 mmHg 22%
    07:00 +27°C° 0 mm 1 mps 705 mmHg 20%
    08:00 +30°C° 0 mm 1 mps 706 mmHg 18%
    09:00 +32°C° 0 mm 1 mps 707 mmHg 15%
    10:00 +35°C° 0 mm 2 mps 707 mmHg 15%
    11:00 +37°C° 0 mm 3 mps 707 mmHg 14%
    12:00 +38°C° 0 mm 4 mps 707 mmHg 13%
    13:00 +40°C° 0 mm 4 mps 706 mmHg 13%
    14:00 +40°C° 0 mm 4 mps 705 mmHg 13%
    15:00 +40°C° 0 mm 4 mps 705 mmHg 13%
    16:00 +38°C° 0 mm 4 mps 704 mmHg 16%
    17:00 +36°C° 0 mm 5 mps 704 mmHg 19%
    18:00 +35°C° 0 mm 5 mps 703 mmHg 22%
    19:00 +33°C° 0 mm 4 mps 704 mmHg 25%
    20:00 +31°C° 0 mm 3 mps 704 mmHg 27%
    21:00 +29°C° 0 mm 1 mps 705 mmHg 30%
    22:00 +29°C° 0 mm 1 mps 705 mmHg 31%
    23:00 +28°C° 0 mm 1 mps 705 mmHg 32%

    Day after tomorrow, 8 April, Wednesday

    Time Temperature Precipitation Wind Pressure Humidity
    00:00 +25°C° 0 mm 0 mps 704 mmHg 33%
    01:00 +25°C° 0 mm 0 mps 704 mmHg 34%
    02:00 +26°C° 0 mm 1 mps 704 mmHg 34%
    03:00 +26°C° 0 mm 1 mps 703 mmHg 35%
    04:00 +26°C° 0 mm 1 mps 704 mmHg 35%
    05:00 +25°C° 0 mm 1 mps 704 mmHg 36%
    06:00 +23°C° 0 mm 0 mps 704 mmHg 37%
    07:00 +27°C° 0.2 mm 1 mps 705 mmHg 34%
    08:00 +29°C° 0.2 mm 1 mps 705 mmHg 30%
    09:00 +32°C° 0.2 mm 1 mps 706 mmHg 27%
    10:00 +34°C° 0.1 mm 2 mps 706 mmHg 25%
    11:00 +36°C° 0.1 mm 3 mps 706 mmHg 23%
    12:00 +38°C° 0.1 mm 4 mps 707 mmHg 20%
    13:00 +38°C° 0 mm 4 mps 706 mmHg 19%
    14:00 +38°C° 0 mm 4 mps 705 mmHg 18%
    15:00 +40°C° 0 mm 5 mps 704 mmHg 16%
    16:00 +36°C° 0.2 mm 5 mps 704 mmHg 22%
    17:00 +33°C° 0.2 mm 5 mps 703 mmHg 27%
    18:00 +30°C° 0.2 mm 5 mps 703 mmHg 33%
    19:00 +29°C° 0 mm 4 mps 703 mmHg 32%
    20:00 +28°C° 0 mm 3 mps 704 mmHg 32%
    21:00 +28°C° 0 mm 2 mps 705 mmHg 32%
    22:00 +27°C° 0 mm 3 mps 705 mmHg 36%
    23:00 +26°C° 0 mm 3 mps 705 mmHg 40%

    9 April, Thursday

    Time Temperature Precipitation Wind Pressure Humidity
    00:00 +26°C° 0 mm 4 mps 705 mmHg 44%
    01:00 +25°C° 0 mm 4 mps 705 mmHg 47%
    02:00 +24°C° 0 mm 3 mps 704 mmHg 50%
    03:00 +24°C° 0 mm 2 mps 704 mmHg 54%
    04:00 +23°C° 0 mm 2 mps 704 mmHg 55%
    05:00 +23°C° 0 mm 2 mps 704 mmHg 56%
    06:00 +22°C° 0 mm 1 mps 704 mmHg 58%
    07:00 +25°C° 0 mm 2 mps 705 mmHg 51%
    08:00 +27°C° 0 mm 2 mps 706 mmHg 45%
    09:00 +30°C° 0 mm 2 mps 707 mmHg 38%
    10:00 +33°C° 0 mm 3 mps 707 mmHg 32%
    11:00 +35°C° 0 mm 3 mps 707 mmHg 26%
    12:00 +37°C° 0 mm 3 mps 707 mmHg 20%
    13:00 +38°C° 0 mm 3 mps 706 mmHg 17%
    14:00 +39°C° 0 mm 3 mps 705 mmHg 15%
    15:00 +39°C° 0 mm 3 mps 704 mmHg 12%
    16:00 +38°C° 0 mm 3 mps 704 mmHg 13%
    17:00 +37°C° 0 mm 3 mps 704 mmHg 15%
    18:00 +36°C° 0 mm 3 mps 703 mmHg 16%
    19:00 +34°C° 0 mm 3 mps 704 mmHg 18%
    20:00 +31°C° 0 mm 2 mps 704 mmHg 20%
    21:00 +30°C° 0 mm 2 mps 705 mmHg 21%
    22:00 +29°C° 0 mm 1 mps 705 mmHg 22%
    23:00 +28°C° 0 mm 1 mps 705 mmHg 22%

    10 April, Friday

    Time Temperature Precipitation Wind Pressure Humidity
    00:00 +28°C° 0 mm 1 mps 705 mmHg 22%
    01:00 +27°C° 0 mm 1 mps 705 mmHg 23%
    02:00 +26°C° 0 mm 1 mps 704 mmHg 23%
    03:00 +26°C° 0 mm 1 mps 704 mmHg 24%
    04:00 +25°C° 0 mm 1 mps 704 mmHg 24%
    05:00 +25°C° 0 mm 1 mps 705 mmHg 24%
    06:00 +25°C° 0 mm 1 mps 705 mmHg 24%
    07:00 +27°C° 0 mm 1 mps 706 mmHg 21%
    08:00 +30°C° 0 mm 1 mps 706 mmHg 18%
    09:00 +34°C° 0 mm 2 mps 707 mmHg 16%
    10:00 +35°C° 0 mm 1 mps 707 mmHg 13%
    11:00 +37°C° 0 mm 1 mps 708 mmHg 11%
    12:00 +40°C° 0 mm 1 mps 708 mmHg 9%
    13:00 +40°C° 0 mm 2 mps 707 mmHg 8%
    14:00 +40°C° 0 mm 3 mps 706 mmHg 8%
    15:00 +40°C° 0 mm 3 mps 706 mmHg 8%
    16:00 +39°C° 0 mm 3 mps 705 mmHg 9%
    17:00 +38°C° 0 mm 3 mps 705 mmHg 10%
    18:00 +38°C° 0 mm 2 mps 704 mmHg 11%
    19:00 +36°C° 0 mm 2 mps 705 mmHg 12%
    20:00 +33°C° 0 mm 1 mps 705 mmHg 13%
    21:00 +31°C° 0 mm 1 mps 706 mmHg 14%
    22:00 +30°C° 0 mm 1 mps 706 mmHg 15%
    23:00 +29°C° 0 mm 1 mps 706 mmHg 16%

    11 April, Saturday

    Time Temperature Precipitation Wind Pressure Humidity
    00:00 +28°C° 0 mm 1 mps 706 mmHg 16%
    01:00 +28°C° 0 mm 1 mps 706 mmHg 17%
    02:00 +28°C° 0 mm 1 mps 705 mmHg 17%
    03:00 +27°C° 0 mm 1 mps 705 mmHg 17%
    04:00 +27°C° 0 mm 1 mps 705 mmHg 18%
    05:00 +26°C° 0 mm 1 mps 706 mmHg 18%
    06:00 +26°C° 0 mm 1 mps 706 mmHg 19%
    07:00 +29°C° 0 mm 1 mps 707 mmHg 17%
    08:00 +32°C° 0 mm 2 mps 707 mmHg 15%
    09:00 +36°C° 0 mm 2 mps 708 mmHg 13%
    10:00 +38°C° 0 mm 2 mps 708 mmHg 11%
    11:00 +39°C° 0 mm 1 mps 708 mmHg 10%
    12:00 +41°C° 0 mm 1 mps 708 mmHg 9%
    13:00 +41°C° 0 mm 2 mps 707 mmHg 9%
    14:00 +41°C° 0 mm 2 mps 706 mmHg 9%
    15:00 +42°C° 0 mm 3 mps 706 mmHg 8%
    16:00 +40°C° 0 mm 3 mps 705 mmHg 9%
    17:00 +39°C° 0 mm 2 mps 705 mmHg 11%
    18:00 +38°C° 0 mm 2 mps 704 mmHg 12%
    19:00 +36°C° 0 mm 2 mps 704 mmHg 14%
    20:00 +34°C° 0 mm 2 mps 705 mmHg 15%
    21:00 +31°C° 0 mm 2 mps 705 mmHg 17%
    22:00 +30°C° 0 mm 2 mps 705 mmHg 19%
    23:00 +29°C° 0 mm 2 mps 705 mmHg 21%
    Show more